Omaha, IA

1:11 AM CST on November 18, 2017 (GMT -0600)
Eppley Airfield

Weather History for KOMA - July, 2013

Change the Weather History Date:

Monday, July 22, 2013

  Actual Average Record
Temperature  
Mean Temperature 83 °F 77 °F  
Max Temperature 95 °F 87 °F 105 °F (2012)
Min Temperature 71 °F 67 °F 53 °F (1970)
Degree Days  
Heating Degree Days 0 0  
Month to date heating degree days 0 0  
Since 1 June heating degree days 16 17  
Since 1 July heating degree days 0 0  
Cooling Degree Days 18 12  
Month to date cooling degree days 314 260  
Year to date cooling degree days 645 572  
Since 1 June cooling degree days 549 490  
Growing Degree Days 33 (Base 50)    
Moisture  
Dew Point 70 °F    
Average Humidity 68    
Maximum Humidity 93    
Minimum Humidity 42    
Precipitation  
Precipitation T in 0.12 in 2.66 in (2004)
Month to date precipitation 0.35 2.71  
Year to date precipitation 19.43 18.17  
Snow  
Snow 0.00 in 0.00 in - ()
Month to date snowfall 0.0 0.0  
Since 1 July snowfall 0.0 0.0  
Snow Depth 0.00 in    
Sea Level Pressure  
Sea Level Pressure 29.76 in    
Wind  
Wind Speed 8 mph (South)    
Max Wind Speed 16 mph    
Max Gust Speed 21 mph    
Visibility 10 miles    
Events Rain , Thunderstorm    
T = Trace of Precipitation, MM = Missing Value Source: NWS Daily Summary

Daily Weather History Graph

Daily Weather History Graph

Search for Another Location

Airport or City:

Trip Planner

Search our weather history database for the weather conditions in past years. The results will help you decide how hot, cold, wet, or windy it might be!

Date:

Astronomy

Jul. 22, 2013 Rise Set
Actual Time 6:09 AM CDT 8:49 PM CDT
Civil Twilight 5:37 AM CDT 9:21 PM CDT
Nautical Twilight 4:57 AM CDT 10:01 PM CDT
Astronomical Twilight 4:11 AM CDT 10:47 PM CDT
Moon 8:35 PM CDT (7/22) 6:07 AM CDT (7/22)
Length of Visible Light 15h 44m
Length of Day
14h 40m
Full, 100% of the Moon is Illuminated
Jul 22
Full
Jul 22
Full
Jul 29
Last Quarter
Aug 6
New
Aug 14
First Quarter

Hourly Weather History & Observations

Time (CDT) Temp. Heat Index Dew Point Humidity Pressure Visibility Wind Dir Wind Speed Gust Speed Precip Events Conditions
12:52 AM 75.0 °F - 71.1 °F 87% 29.79 in 10.0 mi SSE 5.8 mph - N/A   Clear
1:52 AM 75.9 °F - 71.1 °F 85% 29.78 in 10.0 mi South 6.9 mph - N/A   Clear
2:52 AM 75.0 °F - 71.1 °F 87% 29.77 in 10.0 mi SSE 4.6 mph - N/A   Partly Cloudy
3:52 AM 72.0 °F - 69.1 °F 91% 29.76 in 10.0 mi SSE 6.9 mph - N/A   Partly Cloudy
4:52 AM 73.0 °F - 69.1 °F 87% 29.76 in 10.0 mi SSE 6.9 mph - N/A   Partly Cloudy
5:52 AM 71.1 °F - 68.0 °F 90% 29.77 in 10.0 mi SE 6.9 mph - N/A   Partly Cloudy
6:52 AM 72.0 °F - 69.1 °F 91% 29.76 in 10.0 mi SE 6.9 mph - N/A   Partly Cloudy
7:52 AM 75.0 °F - 70.0 °F 84% 29.78 in 10.0 mi SSE 6.9 mph - N/A   Scattered Clouds
8:52 AM 78.1 °F - 70.0 °F 76% 29.78 in 10.0 mi South 6.9 mph - N/A   Scattered Clouds
9:52 AM 82.0 °F 86.3 °F 71.1 °F 69% 29.78 in 10.0 mi South 4.6 mph - N/A   Scattered Clouds
10:52 AM 84.9 °F 90.7 °F 72.0 °F 65% 29.76 in 10.0 mi South 9.2 mph - N/A   Scattered Clouds
11:52 AM 89.1 °F 96.0 °F 72.0 °F 57% 29.77 in 10.0 mi South 10.4 mph - N/A   Scattered Clouds
12:52 PM 90.0 °F 96.4 °F 71.1 °F 54% 29.77 in 10.0 mi SSW 6.9 mph - N/A   Scattered Clouds
1:52 PM 91.9 °F 97.4 °F 70.0 °F 48% 29.75 in 10.0 mi South 4.6 mph - N/A   Scattered Clouds
2:52 PM 93.9 °F 100.3 °F 70.0 °F 46% 29.75 in 10.0 mi South 10.4 mph - N/A   Scattered Clouds
3:52 PM 93.9 °F 100.3 °F 70.0 °F 46% 29.75 in 10.0 mi South 8.1 mph - N/A   Scattered Clouds
4:52 PM 93.9 °F 99.1 °F 69.1 °F 44% 29.75 in 10.0 mi South 11.5 mph - N/A   Scattered Clouds
5:52 PM 95.0 °F 99.5 °F 68.0 °F 41% 29.73 in 10.0 mi SSW 9.2 mph - N/A   Scattered Clouds
6:37 PM 91.4 °F 96.8 °F 69.8 °F 49% 29.74 in 10.0 mi South 6.9 mph - N/A Thunderstorm Thunderstorm
6:52 PM 91.9 °F 96.9 °F 69.1 °F 47% 29.72 in 10.0 mi SSW 9.2 mph - N/A Thunderstorm Thunderstorm
7:37 PM 84.2 °F 90.9 °F 73.4 °F 70% 29.76 in 10.0 mi North 5.8 mph - 0.00 in   Mostly Cloudy
7:52 PM 84.0 °F 91.9 °F 75.0 °F 74% 29.73 in 10.0 mi WNW 10.4 mph - 0.00 in   Mostly Cloudy
8:03 PM 84.2 °F 90.9 °F 73.4 °F 70% 29.75 in 10.0 mi West 10.4 mph - N/A Thunderstorm Thunderstorm
8:43 PM 82.4 °F 86.3 °F 69.8 °F 66% 29.77 in 10.0 mi NNE 6.9 mph - N/A   Scattered Clouds
8:52 PM 80.1 °F 82.7 °F 68.0 °F 67% 29.75 in 10.0 mi NNW 10.4 mph - N/A   Scattered Clouds
9:52 PM 79.0 °F - 68.0 °F 69% 29.78 in 10.0 mi North 15.0 mph - N/A   Scattered Clouds
10:52 PM 75.9 °F - 64.9 °F 69% 29.83 in 10.0 mi North 5.8 mph - N/A   Partly Cloudy
11:52 PM 73.0 °F - 64.9 °F 76% 29.84 in 10.0 mi North 5.8 mph - N/A   Partly Cloudy